AAY1563 KATW-KBNA

Flight info

Callsign AAY1563
Flight time 1h 20m
Altitude 36000
Route DCT BAE J89 OBK J73 GUIDO/N0446F370 J73 TILMN DCT TONES RYYMN3
Aircraft A320/M-SDE3FGHIRWY/LB1

Departure

Time 2026-05-08 03:35
Airport Appleton International Airport (KATW)

Arrival

Time 2026-05-08 04:55
Airport Nashville International Airport (KBNA)
Time Latitude Longitude Altitude Speed Heading
2026-05-08 03:10 44.25969 -88.51367 889 ft 0 kts 360°
2026-05-08 03:25 44.25962 -88.51368 888 ft 4 kts 353°
2026-05-08 03:25 44.25942 -88.51355 889 ft 4 kts 293°
2026-05-08 03:25 44.25938 -88.51327 888 ft 1 kts 270°
2026-05-08 03:26 44.25937 -88.51321 888 ft 0 kts 270°
2026-05-08 03:28 44.25931 -88.51341 888 ft 6 kts 238°
2026-05-08 03:28 44.25902 -88.51386 889 ft 6 kts 222°
2026-05-08 03:28 44.25849 -88.51371 888 ft 15 kts 148°
2026-05-08 03:28 44.25799 -88.51257 888 ft 13 kts 160°
2026-05-08 03:29 44.25706 -88.51261 888 ft 17 kts 190°
2026-05-08 03:29 44.25638 -88.51262 899 ft 7 kts 141°
2026-05-08 03:29 44.25598 -88.51153 899 ft 16 kts 116°
2026-05-08 03:29 44.25544 -88.50996 900 ft 20 kts 115°
2026-05-08 03:30 44.25427 -88.50706 899 ft 6 kts 164°
2026-05-08 03:30 44.25415 -88.50708 900 ft 0 kts 188°
2026-05-08 03:32 44.25405 -88.50712 900 ft 8 kts 197°
2026-05-08 03:32 44.25347 -88.50763 902 ft 8 kts 239°
2026-05-08 03:32 44.25353 -88.50804 902 ft 0 kts 295°
2026-05-08 03:33 44.25353 -88.50805 902 ft 0 kts 295°
2026-05-08 03:34 44.25360 -88.50825 902 ft 12 kts 297°
2026-05-08 03:34 44.25522 -88.51280 906 ft 96 kts 296°
2026-05-08 03:35 44.25930 -88.52434 1000 ft 154 kts 296°
2026-05-08 03:35 44.26420 -88.53814 1575 ft 166 kts 297°
2026-05-08 03:35 44.26934 -88.55245 2398 ft 170 kts 296°
2026-05-08 03:35 44.27468 -88.56763 2918 ft 182 kts 296°
2026-05-08 03:36 44.27873 -88.58524 3175 ft 198 kts 275°
2026-05-08 03:36 44.27542 -88.60381 3733 ft 205 kts 242°
2026-05-08 03:36 44.26454 -88.61811 4038 ft 233 kts 207°
2026-05-08 03:36 44.24762 -88.62111 4447 ft 262 kts 174°
2026-05-08 03:37 44.22931 -88.61645 5204 ft 272 kts 171°
2026-05-08 03:37 44.21070 -88.61064 6075 ft 277 kts 170°
2026-05-08 03:37 44.19205 -88.60453 6912 ft 282 kts 170°
2026-05-08 03:37 44.17276 -88.59824 7700 ft 288 kts 171°
2026-05-08 03:38 44.15299 -88.59195 8486 ft 295 kts 171°
2026-05-08 03:38 44.13274 -88.58564 9260 ft 301 kts 171°
2026-05-08 03:38 44.11206 -88.57932 10016 ft 308 kts 171°
2026-05-08 03:38 44.09041 -88.57283 10357 ft 330 kts 172°
2026-05-08 03:39 44.06724 -88.56595 10697 ft 348 kts 171°
2026-05-08 03:39 44.04328 -88.55878 11369 ft 355 kts 172°
2026-05-08 03:39 44.01899 -88.55145 12099 ft 359 kts 172°
2026-05-08 03:39 43.99483 -88.54413 12872 ft 362 kts 173°
2026-05-08 03:40 43.97008 -88.53664 13629 ft 366 kts 173°
2026-05-08 03:40 43.94511 -88.52915 14276 ft 370 kts 173°
2026-05-08 03:40 43.91978 -88.52159 14893 ft 374 kts 173°
2026-05-08 03:40 43.89418 -88.51395 15504 ft 379 kts 173°
2026-05-08 03:41 43.86824 -88.50620 16118 ft 384 kts 173°
2026-05-08 03:41 43.84200 -88.49838 16708 ft 388 kts 173°
2026-05-08 03:41 43.81578 -88.49053 17276 ft 393 kts 173°
2026-05-08 03:41 43.78890 -88.48249 17860 ft 397 kts 173°
2026-05-08 03:42 43.76170 -88.47440 18424 ft 402 kts 173°
2026-05-08 03:42 43.73426 -88.46626 18956 ft 406 kts 173°
2026-05-08 03:42 43.70650 -88.45800 19502 ft 409 kts 173°
2026-05-08 03:42 43.67859 -88.44972 20062 ft 412 kts 173°
2026-05-08 03:43 43.65045 -88.44138 20618 ft 415 kts 173°
2026-05-08 03:43 43.62208 -88.43296 21169 ft 418 kts 173°
2026-05-08 03:43 43.59353 -88.42445 21700 ft 421 kts 173°
2026-05-08 03:43 43.56514 -88.41601 22245 ft 424 kts 173°
2026-05-08 03:44 43.53617 -88.40745 22782 ft 427 kts 173°
2026-05-08 03:44 43.50702 -88.39885 23302 ft 431 kts 173°
2026-05-08 03:44 43.47763 -88.39021 23757 ft 434 kts 174°
2026-05-08 03:44 43.44796 -88.38151 24148 ft 438 kts 174°
2026-05-08 03:45 43.41806 -88.37272 24510 ft 441 kts 174°
2026-05-08 03:45 43.38788 -88.36384 24839 ft 446 kts 175°
2026-05-08 03:45 43.35778 -88.35493 25168 ft 450 kts 175°
2026-05-08 03:45 43.32710 -88.34584 25518 ft 454 kts 175°
2026-05-08 03:46 43.29613 -88.33673 25868 ft 457 kts 175°
2026-05-08 03:46 43.26487 -88.32757 26223 ft 460 kts 176°
2026-05-08 03:46 43.23346 -88.31843 26566 ft 463 kts 176°
2026-05-08 03:46 43.20180 -88.30919 26841 ft 467 kts 176°
2026-05-08 03:47 43.16986 -88.29985 27127 ft 471 kts 176°
2026-05-08 03:47 43.13772 -88.29041 27462 ft 474 kts 176°
2026-05-08 03:47 43.10538 -88.28073 27793 ft 478 kts 175°
2026-05-08 03:47 43.07337 -88.27000 28121 ft 483 kts 174°
2026-05-08 03:48 43.04082 -88.25793 28443 ft 487 kts 173°
2026-05-08 03:48 43.00816 -88.24509 28744 ft 490 kts 172°
2026-05-08 03:48 42.97535 -88.23195 29047 ft 492 kts 172°
2026-05-08 03:48 42.94237 -88.21885 29364 ft 494 kts 172°
2026-05-08 03:49 42.90925 -88.20601 29687 ft 496 kts 173°
2026-05-08 03:49 42.87596 -88.19346 29978 ft 497 kts 173°
2026-05-08 03:49 42.84249 -88.18107 30231 ft 499 kts 173°
2026-05-08 03:49 42.80940 -88.16891 30475 ft 501 kts 173°
2026-05-08 03:50 42.77569 -88.15647 30717 ft 502 kts 173°
2026-05-08 03:50 42.74190 -88.14396 30957 ft 504 kts 173°
2026-05-08 03:50 42.70807 -88.13142 31190 ft 505 kts 173°
2026-05-08 03:50 42.67415 -88.11879 31489 ft 505 kts 173°
2026-05-08 03:51 42.64032 -88.10614 31827 ft 503 kts 173°
2026-05-08 03:51 42.60662 -88.09356 32158 ft 502 kts 173°
2026-05-08 03:51 42.57296 -88.08101 32494 ft 500 kts 173°
2026-05-08 03:51 42.53995 -88.06876 32863 ft 498 kts 174°
2026-05-08 03:52 42.50656 -88.05643 33204 ft 497 kts 174°
2026-05-08 03:52 42.47324 -88.04415 33522 ft 495 kts 174°
2026-05-08 03:52 42.44000 -88.03191 33857 ft 494 kts 174°
2026-05-08 03:52 42.40685 -88.01972 34142 ft 493 kts 174°
2026-05-08 03:53 42.37378 -88.00754 34388 ft 491 kts 174°
2026-05-08 03:53 42.34091 -87.99543 34727 ft 488 kts 174°
2026-05-08 03:53 42.30818 -87.98343 35015 ft 487 kts 174°
2026-05-08 03:53 42.27551 -87.97148 35273 ft 486 kts 174°
2026-05-08 03:54 42.24336 -87.95978 35506 ft 484 kts 175°
2026-05-08 03:54 42.21073 -87.95179 35732 ft 472 kts 184°
2026-05-08 03:54 42.17826 -87.94939 35859 ft 466 kts 188°
2026-05-08 03:55 42.11387 -87.94651 35955 ft 460 kts 188°
2026-05-08 03:55 42.04997 -87.94365 35951 ft 459 kts 188°
2026-05-08 03:56 41.98618 -87.94065 35929 ft 459 kts 188°
2026-05-08 03:56 41.92288 -87.93759 35935 ft 458 kts 188°
2026-05-08 03:57 41.85920 -87.93461 35935 ft 458 kts 188°
2026-05-08 03:57 41.79559 -87.93170 35944 ft 458 kts 188°
2026-05-08 03:58 41.73195 -87.92874 35906 ft 457 kts 188°
2026-05-08 03:58 41.66888 -87.92586 35944 ft 456 kts 188°
2026-05-08 03:59 41.60553 -87.92295 35955 ft 455 kts 188°
2026-05-08 03:59 41.54481 -87.92015 35959 ft 455 kts 188°
2026-05-08 04:00 41.48178 -87.91723 35951 ft 454 kts 188°
2026-05-08 04:00 41.41912 -87.91433 35961 ft 454 kts 188°
2026-05-08 04:01 41.35607 -87.91139 35976 ft 453 kts 188°
2026-05-08 04:01 41.29304 -87.90856 35952 ft 453 kts 188°
2026-05-08 04:02 41.23016 -87.90579 35969 ft 452 kts 188°
2026-05-08 04:02 41.16775 -87.90295 35979 ft 452 kts 188°
2026-05-08 04:03 41.10496 -87.90002 35956 ft 451 kts 188°
2026-05-08 04:03 41.01086 -87.89570 35977 ft 451 kts 188°
2026-05-08 04:04 40.94821 -87.89285 35981 ft 450 kts 188°
2026-05-08 04:04 40.88602 -87.89007 35947 ft 450 kts 188°
2026-05-08 04:05 40.82341 -87.88727 35967 ft 449 kts 188°
2026-05-08 04:05 40.76096 -87.88450 35978 ft 449 kts 188°
2026-05-08 04:06 40.69845 -87.88167 35990 ft 449 kts 188°
2026-05-08 04:06 40.63645 -87.87886 35988 ft 449 kts 188°
2026-05-08 04:07 40.57401 -87.87605 35991 ft 449 kts 188°
2026-05-08 04:07 40.51160 -87.87331 35994 ft 449 kts 188°
2026-05-08 04:08 40.44921 -87.87050 35966 ft 448 kts 188°
2026-05-08 04:08 40.38741 -87.86769 35993 ft 447 kts 188°
2026-05-08 04:09 40.32532 -87.86492 36007 ft 446 kts 188°
2026-05-08 04:09 40.26331 -87.86221 36013 ft 446 kts 188°
2026-05-08 04:10 40.20136 -87.85948 35986 ft 445 kts 189°
2026-05-08 04:10 40.13959 -87.85673 36011 ft 444 kts 189°
2026-05-08 04:11 40.07839 -87.85403 36020 ft 443 kts 189°
2026-05-08 04:11 40.01686 -87.85135 36016 ft 442 kts 189°
2026-05-08 04:12 39.95545 -87.84868 35997 ft 442 kts 190°
2026-05-08 04:12 39.89403 -87.84602 36012 ft 441 kts 190°
2026-05-08 04:13 39.83309 -87.84335 36022 ft 441 kts 190°
2026-05-08 04:13 39.77177 -87.84065 35983 ft 440 kts 191°
2026-05-08 04:14 39.71074 -87.83800 36016 ft 438 kts 192°
2026-05-08 04:14 39.64984 -87.83534 36030 ft 438 kts 192°
2026-05-08 04:15 39.58939 -87.83271 36035 ft 437 kts 192°
2026-05-08 04:15 39.52863 -87.83017 36009 ft 436 kts 192°
2026-05-08 04:16 39.46730 -87.82117 36035 ft 455 kts 182°
2026-05-08 04:16 39.40537 -87.80383 36044 ft 455 kts 182°
2026-05-08 04:17 39.34395 -87.78665 36049 ft 455 kts 182°
2026-05-08 04:17 39.28214 -87.76953 36022 ft 454 kts 182°
2026-05-08 04:18 39.22038 -87.75257 36038 ft 454 kts 182°
2026-05-08 04:18 39.15865 -87.73557 36055 ft 454 kts 182°
2026-05-08 04:19 39.09731 -87.71867 36009 ft 453 kts 183°
2026-05-08 04:19 39.03563 -87.70174 36023 ft 453 kts 183°
2026-05-08 04:20 38.97400 -87.68493 36036 ft 453 kts 183°
2026-05-08 04:20 38.91239 -87.66806 36043 ft 453 kts 183°
2026-05-08 04:21 38.84992 -87.65092 36027 ft 453 kts 183°
2026-05-08 04:21 38.78835 -87.63402 36043 ft 452 kts 183°
2026-05-08 04:22 38.72684 -87.61721 36051 ft 452 kts 183°
2026-05-08 04:22 38.66571 -87.60070 36062 ft 452 kts 183°
2026-05-08 04:23 38.60426 -87.58401 36052 ft 451 kts 184°
2026-05-08 04:23 38.54283 -87.56745 36077 ft 451 kts 184°
2026-05-08 04:24 38.48134 -87.55092 36081 ft 451 kts 184°
2026-05-08 04:24 38.42038 -87.53447 36082 ft 451 kts 184°
2026-05-08 04:25 38.35905 -87.51788 36077 ft 450 kts 184°
2026-05-08 04:25 38.29778 -87.50141 36090 ft 450 kts 184°
2026-05-08 04:26 38.23647 -87.48499 36093 ft 450 kts 184°
2026-05-08 04:26 38.17519 -87.46857 36099 ft 450 kts 184°
2026-05-08 04:27 38.11400 -87.45228 36071 ft 449 kts 185°
2026-05-08 04:27 38.05323 -87.43606 36083 ft 449 kts 185°
2026-05-08 04:28 37.99210 -87.41971 36088 ft 449 kts 185°
2026-05-08 04:28 37.93102 -87.40303 36088 ft 450 kts 184°
2026-05-08 04:29 37.86990 -87.38586 36089 ft 451 kts 185°
2026-05-08 04:29 37.81190 -87.36904 36071 ft 463 kts 179°
2026-05-08 04:30 37.78141 -87.35295 35627 ft 481 kts 171°
2026-05-08 04:30 37.75119 -87.33431 34407 ft 486 kts 169°
2026-05-08 04:30 37.72080 -87.31464 32981 ft 493 kts 166°
2026-05-08 04:30 37.69065 -87.29442 31778 ft 489 kts 165°
2026-05-08 04:31 37.66088 -87.27424 30721 ft 481 kts 163°
2026-05-08 04:31 37.63162 -87.25457 29694 ft 473 kts 163°
2026-05-08 04:31 37.60274 -87.23556 28670 ft 464 kts 163°
2026-05-08 04:31 37.57419 -87.21716 27675 ft 457 kts 163°
2026-05-08 04:32 37.54605 -87.19928 26753 ft 450 kts 163°
2026-05-08 04:32 37.51891 -87.18204 26292 ft 434 kts 163°
2026-05-08 04:32 37.49248 -87.16514 25810 ft 420 kts 163°
2026-05-08 04:32 37.46648 -87.14854 25318 ft 418 kts 163°
2026-05-08 04:33 37.44054 -87.13206 24781 ft 418 kts 163°
2026-05-08 04:33 37.41461 -87.11565 24297 ft 416 kts 163°
2026-05-08 04:33 37.38860 -87.09922 23657 ft 419 kts 163°
2026-05-08 04:33 37.36175 -87.08650 23070 ft 406 kts 175°
2026-05-08 04:34 37.33470 -87.08053 22752 ft 385 kts 186°
2026-05-08 04:34 37.30856 -87.08021 22627 ft 371 kts 193°
2026-05-08 04:34 37.28317 -87.08112 22435 ft 368 kts 193°
2026-05-08 04:34 37.25762 -87.08207 22247 ft 367 kts 193°
2026-05-08 04:35 37.23210 -87.08302 22059 ft 366 kts 192°
2026-05-08 04:35 37.20669 -87.08396 21870 ft 365 kts 192°
2026-05-08 04:35 37.18133 -87.08492 21674 ft 363 kts 192°
2026-05-08 04:35 37.15614 -87.08589 21493 ft 362 kts 192°
2026-05-08 04:36 37.13100 -87.08683 21308 ft 361 kts 192°
2026-05-08 04:36 37.10589 -87.08770 21123 ft 360 kts 192°
2026-05-08 04:36 37.08084 -87.08856 20934 ft 359 kts 192°
2026-05-08 04:36 37.05622 -87.08943 20753 ft 358 kts 192°
2026-05-08 04:37 37.03132 -87.09037 20568 ft 357 kts 192°
2026-05-08 04:37 37.00653 -87.09133 20384 ft 357 kts 192°
2026-05-08 04:37 36.98176 -87.09223 20198 ft 356 kts 192°
2026-05-08 04:37 36.95704 -87.09311 20017 ft 355 kts 191°
2026-05-08 04:38 36.93243 -87.09397 19829 ft 353 kts 191°
2026-05-08 04:38 36.90794 -87.09488 19653 ft 351 kts 191°
2026-05-08 04:38 36.88353 -87.09584 19468 ft 350 kts 191°
2026-05-08 04:38 36.85919 -87.09681 19289 ft 350 kts 191°
2026-05-08 04:39 36.83513 -87.09712 19107 ft 354 kts 185°
2026-05-08 04:39 36.81055 -87.09188 18909 ft 365 kts 172°
2026-05-08 04:39 36.78663 -87.07973 18474 ft 375 kts 161°
2026-05-08 04:39 36.76338 -87.06522 18037 ft 373 kts 161°
2026-05-08 04:40 36.74022 -87.05083 17643 ft 370 kts 161°
2026-05-08 04:40 36.71727 -87.03662 17253 ft 367 kts 161°
2026-05-08 04:40 36.69445 -87.02261 16863 ft 364 kts 161°
2026-05-08 04:40 36.67182 -87.00876 16478 ft 361 kts 161°
2026-05-08 04:41 36.64932 -86.99503 16099 ft 359 kts 161°
2026-05-08 04:41 36.62696 -86.98141 15724 ft 357 kts 161°
2026-05-08 04:41 36.60468 -86.96786 15348 ft 355 kts 161°
2026-05-08 04:41 36.58280 -86.95455 14975 ft 354 kts 161°
2026-05-08 04:42 36.56074 -86.94114 14610 ft 352 kts 161°
2026-05-08 04:42 36.53875 -86.92779 14234 ft 351 kts 160°
2026-05-08 04:42 36.51682 -86.91445 13854 ft 351 kts 160°
2026-05-08 04:42 36.49497 -86.90114 13458 ft 349 kts 160°
2026-05-08 04:43 36.47325 -86.88793 13090 ft 346 kts 160°
2026-05-08 04:43 36.45173 -86.87488 12721 ft 343 kts 160°
2026-05-08 04:43 36.43041 -86.86195 12368 ft 340 kts 159°
2026-05-08 04:43 36.40924 -86.84919 12017 ft 337 kts 159°
2026-05-08 04:44 36.38836 -86.83654 11734 ft 328 kts 159°
2026-05-08 04:44 36.36827 -86.82433 11494 ft 324 kts 159°
2026-05-08 04:44 36.34818 -86.81216 11248 ft 320 kts 158°
2026-05-08 04:44 36.32821 -86.80009 10995 ft 318 kts 158°
2026-05-08 04:45 36.30841 -86.78810 10758 ft 314 kts 158°
2026-05-08 04:45 36.28887 -86.77627 10425 ft 312 kts 157°
2026-05-08 04:45 36.26962 -86.76465 10285 ft 302 kts 158°
2026-05-08 04:45 36.25030 -86.75623 10136 ft 288 kts 173°
2026-05-08 04:46 36.23085 -86.75457 9970 ft 274 kts 189°
2026-05-08 04:46 36.21266 -86.75877 9797 ft 260 kts 202°
2026-05-08 04:46 36.19571 -86.76514 9448 ft 255 kts 202°
2026-05-08 04:46 36.17872 -86.77144 8955 ft 254 kts 201°
2026-05-08 04:47 36.16178 -86.77768 8413 ft 253 kts 201°
2026-05-08 04:47 36.14495 -86.78389 8146 ft 253 kts 200°
2026-05-08 04:47 36.12817 -86.79012 8007 ft 249 kts 200°
2026-05-08 04:47 36.11159 -86.79648 7664 ft 249 kts 201°
2026-05-08 04:48 36.09509 -86.80297 7331 ft 248 kts 200°
2026-05-08 04:48 36.07867 -86.80944 7013 ft 247 kts 200°
2026-05-08 04:48 36.06257 -86.81573 6698 ft 238 kts 200°
2026-05-08 04:48 36.04707 -86.82174 6390 ft 229 kts 199°
2026-05-08 04:49 36.03242 -86.82744 6134 ft 218 kts 199°
2026-05-08 04:49 36.01810 -86.83304 5819 ft 213 kts 199°
2026-05-08 04:49 36.00403 -86.83786 5547 ft 208 kts 190°
2026-05-08 04:49 35.98982 -86.83740 5283 ft 203 kts 169°
2026-05-08 04:50 35.97680 -86.83117 5022 ft 200 kts 149°
2026-05-08 04:50 35.96630 -86.82007 4764 ft 199 kts 129°
2026-05-08 04:50 35.95940 -86.80545 4508 ft 197 kts 110°
2026-05-08 04:50 35.95672 -86.78904 4259 ft 195 kts 91°
2026-05-08 04:51 35.95840 -86.77256 4015 ft 193 kts 72°
2026-05-08 04:51 35.96416 -86.75773 3774 ft 191 kts 53°
2026-05-08 04:51 35.97314 -86.74617 3529 ft 189 kts 36°
2026-05-08 04:51 35.98462 -86.73860 3289 ft 187 kts 18°
2026-05-08 04:52 35.99692 -86.73383 3047 ft 183 kts 17°
2026-05-08 04:52 36.00872 -86.72921 2808 ft 171 kts 17°
2026-05-08 04:52 36.01990 -86.72485 2602 ft 166 kts 17°
2026-05-08 04:52 36.03084 -86.72058 2394 ft 164 kts 17°
2026-05-08 04:53 36.04163 -86.71636 2178 ft 162 kts 17°
2026-05-08 04:53 36.05230 -86.71219 1964 ft 161 kts 17°
2026-05-08 04:53 36.06295 -86.70801 1750 ft 160 kts 17°
2026-05-08 04:53 36.07353 -86.70385 1534 ft 160 kts 17°
2026-05-08 04:54 36.08375 -86.69984 1346 ft 149 kts 17°
2026-05-08 04:54 36.09334 -86.69607 1131 ft 141 kts 17°
2026-05-08 04:54 36.10260 -86.69244 935 ft 138 kts 17°
2026-05-08 04:54 36.11170 -86.68879 740 ft 137 kts 17°
2026-05-08 04:55 36.12072 -86.68530 584 ft 131 kts 16°
2026-05-08 04:55 36.12825 -86.68233 576 ft 90 kts 18°
2026-05-08 04:55 36.13229 -86.68078 577 ft 23 kts 19°
2026-05-08 04:55 36.13314 -86.67931 574 ft 13 kts 62°
2026-05-08 04:56 36.13318 -86.67921 574 ft 0 kts 62°
2026-05-08 04:56 36.13321 -86.67908 575 ft 9 kts 77°
2026-05-08 04:57 36.13245 -86.67882 575 ft 15 kts 197°
2026-05-08 04:57 36.13150 -86.67920 575 ft 14 kts 198°
2026-05-08 04:57 36.13050 -86.67863 576 ft 18 kts 138°
2026-05-08 04:57 36.12967 -86.67758 575 ft 18 kts 133°
2026-05-08 04:58 36.12877 -86.67640 571 ft 20 kts 134°
2026-05-08 04:58 36.12784 -86.67518 575 ft 20 kts 134°
2026-05-08 04:58 36.12687 -86.67392 576 ft 21 kts 133°
2026-05-08 04:58 36.12586 -86.67261 577 ft 22 kts 133°
2026-05-08 04:59 36.12473 -86.67113 575 ft 23 kts 135°
2026-05-08 04:59 36.12440 -86.66986 575 ft 16 kts 37°
2026-05-08 04:59 36.12541 -86.66920 573 ft 16 kts 12°
2026-05-08 04:59 36.12631 -86.67006 575 ft 19 kts 311°
2026-05-08 05:00 36.12696 -86.67100 569 ft 14 kts 310°
2026-05-08 05:00 36.12764 -86.67199 569 ft 16 kts 311°
2026-05-08 05:00 36.12792 -86.67277 572 ft 5 kts 221°
2026-05-08 05:00 36.12760 -86.67283 569 ft 4 kts 186°
2026-05-08 05:01 36.12748 -86.67284 572 ft 0 kts 185°